{"data":{"norad_id":32294,"epoch":"2026-05-25T01:41:02.876352Z","epoch_age_seconds":76093,"freshness":"FRESH","line1":"1 32294U 07056B   26145.07017218  .00000138  00000+0  00000+0 0  9992","line2":"2 32294   5.1949  73.7731 0003902 344.6990 234.5608  1.00268921 67962","mean_motion":1.00268921,"eccentricity":0.0003902,"inclination_deg":5.1949,"raan_deg":73.7731,"arg_perigee_deg":344.699,"mean_anomaly_deg":234.5608,"bstar":0,"rev_number":6796,"period_min":1436.1379235347,"perigee_km":35770.944871764,"apogee_km":35803.850855171,"semimajor_km":42165.534863468,"source":"CELESTRAK","updated_at":"2026-05-25T13:38:13.855393Z"}}